Theta_e
306 306 307 307 307 308 308 308 308 308 308 309 309 310 310 311 312 318 319 315 313 314 314 314 314 315 316 317 319 322 326 328 327 326 330 332 337 344 343 344 345 344 344 342 340
307 307 307 308 308 308 308 308 308 308 309 310 311 310 310 311 318 322 317 315 317 315 315 316 314 315 315 317 318 321 323 325 323 324 325 323 331 330 339 339 341 342 344 343 340
308 309 309 309 309 309 308 308 308 308 310 311 311 311 311 313 322 323 319 317 317 315 315 314 313 315 317 317 318 318 322 322 322 322 322 321 321 325 333 333 338 340 346 343 341
310 310 310 310 310 309 309 308 308 310 310 311 311 311 311 316 324 322 320 319 317 313 315 316 315 315 317 317 316 319 319 319 320 318 319 320 322 327 332 331 337 338 341 344 342
311 311 311 311 310 310 309 309 310 311 312 311 311 311 312 313 317 321 320 319 315 314 316 317 316 316 318 316 315 318 318 316 317 316 316 316 318 324 330 333 336 339 341 344 344
312 312 312 312 311 309 309 312 313 312 311 311 312 311 312 317 321 322 320 319 315 316 317 317 317 317 316 316 317 316 316 317 316 316 316 317 322 330 329 331 340 340 343 345 342
312 313 312 312 311 310 310 315 316 311 311 312 313 312 312 317 321 322 320 321 315 315 317 318 319 317 315 317 315 315 318 319 318 318 319 317 329 329 328 331 340 343 345 346 343
313 313 313 313 311 310 315 316 317 315 317 313 313 314 315 319 321 319 321 321 321 321 321 321 320 318 316 315 315 317 318 321 320 319 316 322 322 319 330 337 340 341 343 344 344
313 313 313 313 311 313 316 318 319 319 318 320 316 319 320 322 321 320 321 322 321 321 320 321 318 314 315 318 318 318 321 320 321 323 320 319 322 329 336 336 341 343 342 342 342
313 313 314 313 310 315 316 319 316 319 319 319 320 321 322 321 320 319 321 321 320 320 317 316 315 318 316 318 320 320 320 320 320 319 330 330 334 334 338 337 337 338 340 341 340
313 314 314 313 311 316 318 316 316 316 317 316 317 319 321 321 317 319 321 321 321 321 322 317 322 324 322 318 317 317 319 320 319 318 333 334 335 335 338 339 338 338 338 339 339
313 313 314 313 314 317 319 318 318 318 318 317 317 318 320 320 320 319 320 320 321 322 320 322 324 322 319 316 317 318 320 322 323 329 332 334 333 333 334 337 337 338 337 337 338
313 313 314 314 316 318 319 318 319 318 316 316 318 320 321 321 321 320 319 320 321 322 322 324 323 320 319 318 321 321 322 322 324 324 323 326 333 332 331 331 333 336 339 340 340
313 313 314 314 316 319 320 319 319 319 322 320 322 322 322 321 320 320 319 320 321 323 321 322 321 322 321 322 322 324 320 321 323 324 324 327 332 332 332 332 332 336 340 337 339
312 313 314 314 314 319 319 320 319 319 323 323 323 322 322 319 319 319 320 321 322 322 322 324 324 326 327 326 321 324 319 322 322 324 325 327 330 333 331 333 333 334 340 337 336
310 312 314 314 314 319 320 319 320 318 325 324 319 319 320 318 318 319 320 321 320 321 321 322 322 326 327 322 321 320 323 324 324 325 328 329 333 332 332 333 333 333 338 338 337
307 310 314 314 314 318 320 320 317 319 321 321 320 319 319 319 319 321 321 321 322 324 325 325 326 326 326 326 325 323 327 326 326 326 327 328 330 332 331 332 332 334 339 340 337
307 309 314 314 315 319 320 319 317 316 322 321 318 318 321 319 320 320 321 322 320 322 324 325 324 326 326 325 326 325 326 326 326 326 326 327 332 332 330 330 331 331 339 342 340
308 310 314 316 315 315 319 318 316 317 322 322 319 320 321 321 321 321 321 322 321 323 324 327 326 323 323 323 323 325 329 324 328 325 328 328 331 330 330 330 329 329 336 339 340
308 311 319 316 315 317 318 314 316 318 321 321 322 322 323 324 321 322 326 324 324 323 322 326 326 321 324 323 322 326 324 327 326 328 326 327 331 326 331 331 330 330 333 334 334
309 315 319 320 320 319 317 315 317 318 320 321 323 323 323 324 322 326 326 323 322 324 322 323 326 324 318 322 321 324 326 326 327 328 326 325 324 328 330 329 329 329 332 334 330
309 318 318 321 320 315 319 318 318 321 321 319 320 321 323 323 324 326 327 324 320 322 324 323 325 324 321 318 318 323 325 325 324 324 328 328 327 323 324 327 326 328 330 331 330
313 313 317 321 322 318 316 318 319 320 319 320 322 322 322 323 325 325 323 320 320 322 324 325 324 324 321 322 320 322 324 323 325 325 330 327 325 323 323 326 326 327 327 330 331
314 317 316 317 314 318 319 318 319 317 318 318 320 321 323 323 323 325 325 321 320 319 316 321 323 325 323 322 321 322 322 323 322 321 321 322 321 322 324 322 319 322 328 331 332
313 314 312 317 316 316 317 317 318 320 317 317 320 320 324 325 324 324 324 322 319 318 319 323 326 322 320 318 319 321 321 321 322 320 319 319 320 320 320 321 319 320 327 332 332
313 313 312 312 312 315 314 318 317 316 316 319 320 319 320 324 324 325 324 324 323 321 322 319 325 321 323 321 320 322 322 322 322 322 321 322 322 321 319 326 326 324 329 333 332
312 312 312 309 313 316 316 316 316 314 315 316 318 319 320 318 316 317 317 318 320 322 323 324 325 325 324 321 322 323 323 323 323 322 322 322 321 320 326 328 329 328 332 333 331
Wind_Speed
11 12 12 14 14 13 14 14 13 12 11 10 9 8 7 6 5 6 3 3 8 12 8 10 12 11 9 5 5 3 2 4 3 4 4 3 3 4 3 4 5 6 2 3 21
12 12 13 14 14 14 14 13 13 11 9 9 7 6 5 3 2 6 5 7 9 9 9 8 13 14 5 3 3 2 2 5 2 1 1 6 7 6 4 6 7 7 9 7 23
12 13 13 13 13 14 14 14 12 9 7 8 6 4 2 2 6 4 6 6 5 7 9 10 15 12 4 4 3 3 3 3 5 8 8 9 10 6 7 10 14 15 15 18 27
14 13 13 13 13 14 14 13 9 7 7 6 4 2 1 4 3 2 5 5 6 10 16 14 11 5 5 6 4 3 7 5 7 6 5 7 5 6 12 11 5 9 16 22 27
13 13 13 14 13 14 13 10 8 8 6 2 2 1 3 4 4 4 5 5 7 14 11 8 5 5 5 5 7 4 4 6 9 9 11 10 15 10 17 14 10 10 14 22 23
13 14 14 14 13 13 11 8 9 6 2 2 2 2 4 5 6 5 6 6 10 12 9 5 3 4 6 3 4 4 7 11 8 4 7 7 3 5 7 10 12 11 14 20 25
13 14 15 14 12 11 8 6 7 6 4 3 3 2 4 5 7 7 8 8 10 7 4 3 3 3 1 3 1 2 6 7 4 1 3 7 3 10 11 8 13 15 15 19 24
14 15 15 14 11 9 7 7 6 3 5 4 2 3 3 8 5 4 6 7 7 3 1 0 4 1 1 2 2 2 1 2 6 7 3 3 6 5 18 8 12 15 16 20 22
14 15 15 13 10 7 8 8 3 2 3 4 3 3 4 3 3 5 7 6 4 5 2 3 1 2 2 2 1 2 1 3 3 11 1 3 8 17 15 7 10 10 10 10 6
14 14 14 13 9 6 9 4 4 2 1 2 3 3 4 2 6 7 8 4 3 2 4 1 2 1 2 2 4 2 2 3 3 4 14 5 9 10 7 5 6 7 11 5 3
14 14 14 12 7 5 9 4 5 2 5 2 2 1 3 6 7 11 8 4 3 2 2 2 2 5 1 3 2 2 1 4 3 2 6 7 11 13 6 6 8 11 13 10 5
15 14 14 11 4 3 5 4 6 5 5 4 7 6 4 3 5 8 8 3 2 2 0 1 5 1 1 4 4 3 3 1 3 11 4 12 15 11 16 13 10 15 18 13 12
15 15 13 11 1 0 4 6 7 7 2 3 1 3 4 7 3 9 10 6 2 1 1 0 3 2 4 6 4 3 3 1 1 4 3 2 9 10 5 8 12 20 18 16 11
15 15 13 8 2 2 1 5 6 7 2 0 2 4 7 5 3 7 11 3 2 1 3 2 3 2 4 3 1 2 6 3 4 4 2 4 3 3 8 7 15 21 25 23 15
15 15 12 7 5 3 2 6 7 4 3 2 2 4 7 3 7 4 12 2 2 1 2 3 5 6 6 3 3 1 2 2 4 2 2 6 0 3 3 6 12 17 22 19 14
14 15 12 8 5 6 3 7 2 0 2 3 4 5 4 1 2 6 4 4 2 2 1 2 3 2 3 2 3 6 2 3 3 0 2 3 4 2 3 4 8 14 17 13 9
14 13 12 8 2 6 4 3 0 2 2 2 2 3 2 4 3 3 5 5 2 3 2 2 2 4 2 1 2 2 1 2 1 0 2 1 3 2 3 4 5 9 12 10 5
14 11 9 7 6 8 3 2 3 0 1 2 2 3 3 3 2 2 5 5 1 3 2 1 4 3 6 3 2 4 2 2 3 2 2 1 2 3 4 6 6 6 5 6 2
13 7 5 5 8 9 4 2 3 4 1 2 2 3 2 2 1 2 2 3 3 5 4 3 2 1 5 4 2 2 1 2 3 1 3 1 2 6 4 6 7 4 4 4 3
13 4 3 6 10 9 2 3 2 3 3 2 2 1 3 2 4 3 2 1 2 2 2 5 3 0 1 2 9 3 4 2 1 2 3 2 3 3 3 8 6 5 2 4 5
10 0 2 10 8 4 2 4 3 6 3 2 2 3 3 3 3 3 3 3 3 3 3 3 2 3 3 3 1 2 1 4 1 2 4 5 3 2 5 4 7 5 3 3 5
4 1 1 12 2 1 2 3 1 2 2 3 2 2 2 2 3 2 3 2 5 3 4 1 2 2 2 5 2 2 3 3 3 3 0 2 4 1 5 4 5 5 4 1 2
10 2 2 12 3 2 2 1 2 2 2 1 2 1 2 3 3 1 3 2 6 2 4 5 1 4 3 2 2 2 2 3 4 1 5 5 2 3 1 2 3 7 5 4 4
5 1 2 3 3 3 2 1 1 3 1 2 2 2 3 2 3 4 3 4 3 4 5 2 3 3 7 2 2 3 6 6 3 4 4 8 11 8 9 9 12 10 6 7 6
3 1 1 1 3 2 1 0 1 2 5 4 2 2 4 3 2 3 2 3 4 2 3 1 3 2 2 2 3 5 9 9 10 9 8 9 10 16 15 13 16 14 11 11 8
1 2 2 2 1 2 2 1 1 1 3 2 2 2 2 3 2 6 5 3 2 3 2 2 3 2 3 3 7 11 13 12 12 12 14 16 18 14 14 9 9 8 13 12 9
2 2 2 2 2 2 2 2 2 0 2 3 1 2 4 3 4 6 4 5 3 2 3 2 5 3 8 1 3 9 16 18 15 11 10 12 14 3 6 9 7 9 11 10 8
Wind_Direction
335 334 334 332 328 324 319 320 321 322 317 316 314 314 310 305 320 339 26 88 161 166 153 149 164 162 153 138 118 122 183 172 186 206 128 325 298 188 198 217 193 208 259 236 178
336 333 338 330 330 325 323 324 324 321 318 319 321 320 314 329 67 65 64 103 127 150 161 168 159 155 132 125 115 147 213 205 316 253 294 307 259 282 238 211 218 211 216 201 180
337 341 338 331 332 330 328 327 325 319 322 327 329 327 320 17 114 56 83 109 128 135 139 141 139 134 107 140 153 158 211 210 256 242 262 285 283 251 270 247 225 213 195 185 183
344 339 335 337 337 332 333 332 327 320 323 331 337 331 121 117 99 101 107 111 125 133 136 133 143 119 132 163 172 222 235 224 275 248 234 257 284 266 238 247 229 240 227 188 188
341 338 341 339 340 337 340 339 330 323 325 348 2 84 131 122 97 108 105 101 127 142 143 134 120 128 134 159 157 220 254 210 250 252 246 261 260 267 268 248 248 244 194 193 194
340 338 340 341 344 341 347 348 349 346 17 49 63 123 131 118 122 107 110 96 134 146 142 114 75 109 114 161 209 209 263 273 278 258 236 224 269 191 280 233 225 216 201 199 204
340 341 341 344 347 344 344 346 3 28 58 64 78 114 151 127 133 115 119 102 119 137 119 75 45 49 114 143 235 280 294 298 222 233 300 189 203 227 317 283 217 215 210 209 214
342 344 343 344 347 345 339 327 330 29 48 52 55 105 111 149 157 133 130 112 105 97 85 133 20 225 129 120 18 281 258 348 63 349 49 193 251 58 343 258 242 231 222 223 220
345 346 343 343 346 339 343 331 322 329 355 14 71 77 114 124 149 154 141 115 64 46 140 216 154 104 100 174 181 24 65 348 72 42 313 357 304 345 340 252 252 255 244 232 223
344 345 340 344 345 345 351 326 328 344 359 26 73 125 102 96 121 147 146 135 100 75 109 142 93 122 114 207 100 55 27 299 288 48 52 44 7 356 12 46 8 318 283 258 218
343 346 341 344 346 360 7 350 349 342 317 237 247 264 109 105 105 147 156 155 116 76 80 20 147 51 32 211 148 126 265 302 355 97 59 55 52 33 34 43 359 323 299 283 258
342 344 343 344 353 25 25 53 26 333 315 300 238 233 206 156 129 148 166 138 134 149 89 196 51 174 120 148 166 184 260 141 78 115 66 69 57 41 41 42 7 339 324 308 260
339 338 344 340 306 173 51 41 347 348 287 308 160 186 177 177 145 176 179 177 152 171 91 345 38 301 157 151 166 186 201 203 115 132 88 255 64 34 30 32 27 23 3 346 297
332 331 341 342 267 185 71 360 342 334 28 355 226 178 174 151 107 171 176 163 104 29 167 282 334 80 140 97 205 142 210 214 167 197 351 341 111 52 354 19 39 20 15 12 4
325 323 331 327 273 202 268 329 318 323 104 144 138 158 158 153 137 161 181 156 106 104 240 43 4 31 66 360 225 37 130 353 27 64 187 21 232 121 340 19 16 15 15 21 37
320 316 318 321 285 215 268 331 318 321 130 141 144 161 143 128 101 123 143 117 89 100 342 329 293 3 13 60 34 143 110 76 78 21 150 6 313 148 355 358 343 6 9 23 46
318 307 300 308 270 202 256 313 2 207 346 92 148 163 167 153 171 150 154 171 175 150 51 350 34 339 18 149 120 158 168 310 246 108 49 337 268 51 241 283 313 354 4 22 42
320 299 286 283 227 202 231 66 227 232 296 335 67 106 158 162 155 130 137 171 137 127 142 270 133 7 348 42 355 38 354 309 299 283 24 151 246 92 247 281 307 25 39 52 48
329 300 281 245 203 191 171 172 225 204 357 314 111 127 136 124 112 140 170 175 160 191 181 176 136 20 57 52 318 118 98 77 107 101 256 60 242 253 236 264 295 32 101 84 88
334 316 186 146 155 169 115 233 242 238 329 244 135 146 145 133 166 170 169 50 143 200 253 172 166 132 125 214 59 26 115 202 178 246 283 183 259 257 202 227 254 281 151 110 88
332 14 170 155 146 160 195 221 258 261 251 244 147 123 130 135 128 143 144 70 16 74 119 146 239 150 205 39 320 140 162 45 20 286 277 278 249 204 272 275 249 248 281 36 65
350 208 269 170 113 28 182 195 286 298 286 239 117 109 140 133 108 126 148 64 344 176 149 97 118 128 40 326 263 242 143 160 254 244 70 332 267 237 272 243 263 275 260 289 28
342 286 45 177 177 194 250 253 261 335 347 9 125 48 59 97 114 117 97 17 13 86 153 171 84 151 139 154 189 224 132 108 102 150 212 251 225 177 272 157 280 293 240 179 128
346 254 48 151 107 143 154 39 321 1 121 25 102 115 117 105 38 139 132 25 28 84 94 125 132 222 267 342 103 207 203 183 211 223 234 241 269 255 259 291 302 308 206 178 140
348 80 90 90 64 92 57 120 90 17 5 21 92 93 143 136 120 138 162 151 81 45 56 39 204 209 252 252 219 254 248 212 224 241 238 272 259 276 289 294 289 284 195 174 151
261 174 118 92 80 134 353 90 112 28 2 19 136 109 72 162 191 184 168 211 160 83 79 11 174 175 258 218 228 250 255 246 238 241 246 261 271 284 286 296 295 248 189 176 149
196 164 130 5 98 153 143 139 112 327 76 36 50 112 93 77 76 84 83 97 124 161 128 149 150 169 265 329 286 264 242 244 245 241 244 248 270 288 279 291 281 197 181 164 146